Date,Time,Wetness (Wet Dry or Ice),Wind Speed (m/s),Temperature (C),Humidity (%),Pressure (mb),Radiation (W/m^2)
2020-03-01,06:40:00,DRY,8.87,6.13,71.7,779.00,1.3
2020-03-01,06:45:00,DRY,6.50,6.05,71.5,779.00,0.7
2020-03-01,06:50:00,DRY,7.50,6.03,70.3,779.00,1.2
2020-03-01,06:55:00,DRY,8.00,6.15,72.0,779.00,1.8
2020-03-01,07:00:00,DRY,7.53,6.10,71.7,779.00,1.3
2020-03-01,07:05:00,DRY,7.50,6.00,72.5,779.00,1.3
2020-03-01,07:10:00,DRY,7.50,6.13,75.0,779.00,1.2
2020-03-01,07:15:00,DRY,7.40,6.10,76.5,779.00,0.8
2020-03-01,07:20:00,DRY,7.90,6.10,76.7,779.00,1.7
2020-03-01,07:25:00,DRY,7.65,6.10,77.5,779.00,2.5
2020-03-01,07:30:00,DRY,6.97,6.13,78.0,779.00,3.9
2020-03-01,07:35:00,DRY,8.50,6.25,78.0,779.00,5.9
2020-03-01,07:40:00,DRY,8.13,6.20,78.3,779.00,10.6
2020-03-01,07:45:00,DRY,6.65,6.15,79.0,779.00,18.1
2020-03-01,07:50:00,DRY,7.13,6.37,77.3,779.00,23.0
2020-03-01,07:55:00,DRY,6.70,6.40,77.0,780.00,31.0
2020-03-01,08:00:00,DRY,7.37,6.33,78.3,779.00,40.4
2020-03-01,08:05:00,DRY,7.40,6.45,78.5,779.00,52.8
2020-03-01,08:10:00,DRY,8.03,6.53,83.3,779.00,53.6
2020-03-01,08:15:00,DRY,7.25,6.40,78.0,779.50,81.3
2020-03-01,08:20:00,DRY,7.37,6.43,77.7,779.33,95.7
2020-03-01,08:25:00,DRY,8.10,6.55,76.5,779.00,110.5
2020-03-01,08:30:00,DRY,6.00,6.50,76.3,779.33,117.1
2020-03-01,08:35:00,DRY,7.95,6.40,77.0,780.00,136.1
2020-03-01,08:40:00,DRY,7.53,6.57,76.0,779.33,267.2
2020-03-01,08:45:00,DRY,7.65,6.90,75.0,780.00,297.3
2020-03-01,08:50:00,DRY,7.07,6.87,75.3,779.33,321.8
2020-03-01,08:55:00,DRY,6.80,6.95,75.0,779.00,343.9
2020-03-01,09:00:00,DRY,7.17,6.97,76.0,779.33,365.4
2020-03-01,09:05:00,DRY,6.90,6.95,75.5,779.00,387.6
2020-03-01,09:10:00,DRY,8.03,7.10,73.7,779.67,410.0
2020-03-01,09:15:00,DRY,6.65,7.15,73.5,779.00,431.0
2020-03-01,09:20:00,DRY,7.87,7.20,73.0,780.00,452.9
2020-03-01,09:25:00,DRY,7.70,7.25,72.0,779.00,474.3
2020-03-01,09:30:00,DRY,7.03,7.30,72.3,780.00,495.5
2020-03-01,09:35:00,DRY,7.15,7.30,74.0,780.00,518.2
2020-03-01,09:40:00,DRY,7.13,7.40,74.3,779.33,539.6
2020-03-01,09:45:00,DRY,7.45,7.45,74.0,780.00,560.8
2020-03-01,09:50:00,DRY,7.67,7.50,74.3,780.00,582.0
2020-03-01,09:55:00,DRY,7.70,7.65,73.0,779.00,603.2
2020-03-01,10:00:00,DRY,7.10,7.77,75.3,779.00,622.5
2020-03-01,10:05:00,DRY,7.00,8.00,75.5,779.00,642.1
2020-03-01,10:10:00,DRY,7.13,8.13,72.3,779.67,661.7
2020-03-01,10:15:00,DRY,7.85,8.05,73.5,780.00,680.5
2020-03-01,10:20:00,DRY,8.13,8.17,71.7,779.00,698.4
2020-03-01,10:25:00,DRY,8.65,8.20,72.5,779.00,717.0
2020-03-01,10:30:00,DRY,8.33,8.33,72.3,779.00,734.8
2020-03-01,10:35:00,DRY,7.75,8.30,72.5,779.00,752.2
2020-03-01,10:40:00,DRY,8.73,8.47,75.7,779.00,767.3
2020-03-01,10:45:00,DRY,8.60,8.40,77.0,779.00,782.5
2020-03-01,10:50:00,DRY,7.97,8.57,75.3,779.00,798.0
2020-03-01,10:55:00,DRY,8.15,8.55,77.0,779.00,813.8
2020-03-01,11:00:00,DRY,7.77,8.50,75.7,779.00,828.9
2020-03-01,11:05:00,DRY,7.95,8.55,73.5,779.00,846.8
2020-03-01,11:10:00,DRY,7.17,8.67,76.0,779.00,853.2
2020-03-01,11:15:00,DRY,8.50,8.90,77.0,779.00,869.9
2020-03-01,11:20:00,DRY,7.67,8.93,78.3,779.00,885.8
2020-03-01,11:25:00,DRY,7.40,8.70,80.5,779.00,900.0
2020-03-01,11:30:00,DRY,6.80,9.00,79.7,779.00,940.1
2020-03-01,11:35:00,DRY,6.15,9.25,78.5,779.00,919.0
2020-03-01,11:40:00,DRY,7.03,9.23,76.7,779.00,930.9
2020-03-01,11:45:00,DRY,7.05,9.25,78.0,779.00,945.6
2020-03-01,11:50:00,DRY,6.90,9.40,78.0,779.00,952.2
2020-03-01,11:55:00,DRY,7.85,9.50,75.0,779.00,960.5
2020-03-01,12:00:00,DRY,7.73,9.57,75.3,779.00,972.5
2020-03-01,12:05:00,DRY,7.75,9.60,74.0,779.00,985.2
2020-03-01,12:10:00,DRY,8.27,9.77,71.3,779.00,988.4
2020-03-01,12:15:00,DRY,8.20,9.70,76.0,779.00,994.9
2020-03-01,12:20:00,DRY,7.10,9.60,76.0,779.00,1005.2
2020-03-01,12:25:00,DRY,6.45,9.75,76.0,779.00,1008.8
2020-03-01,12:30:00,DRY,6.90,9.70,75.3,779.00,1012.6
2020-03-01,12:35:00,DRY,6.05,9.70,75.0,779.00,1015.8
2020-03-01,12:40:00,DRY,6.10,9.90,74.7,779.00,1019.9
2020-03-01,12:45:00,DRY,6.70,9.95,74.5,779.00,1025.0
2020-03-01,12:50:00,DRY,6.87,10.10,72.7,779.00,1029.7
2020-03-01,12:55:00,DRY,5.85,10.00,73.5,779.00,1032.0
2020-03-01,13:00:00,DRY,6.93,10.30,72.0,779.00,1035.2
2020-03-01,13:05:00,DRY,5.65,10.20,70.5,779.00,1039.0
2020-03-01,13:10:00,DRY,6.47,10.37,69.7,779.00,1038.6
2020-03-01,13:15:00,DRY,6.80,10.40,70.5,779.00,1039.7
2020-03-01,13:20:00,DRY,6.63,10.37,72.7,779.00,1046.8
2020-03-01,13:25:00,DRY,8.20,10.45,72.0,779.00,1041.8
2020-03-01,13:30:00,DRY,6.50,10.40,72.0,779.00,1041.2
2020-03-01,13:35:00,DRY,6.30,10.30,70.0,779.00,1040.3
2020-03-01,13:40:00,DRY,6.87,10.60,70.7,778.33,1038.1
2020-03-01,13:45:00,DRY,6.10,10.90,67.5,779.00,1034.4
2020-03-01,13:50:00,DRY,6.83,10.67,69.7,778.33,1031.8
2020-03-01,13:55:00,DRY,6.40,10.60,70.0,778.00,1028.2
2020-03-01,14:00:00,DRY,5.67,10.50,70.3,778.00,1038.8
2020-03-01,14:05:00,DRY,6.75,10.60,70.5,778.00,1020.4
2020-03-01,14:10:00,DRY,7.10,10.70,71.0,778.00,1016.3
2020-03-01,14:15:00,DRY,6.35,10.10,73.0,778.00,1015.9
2020-03-01,14:20:00,DRY,6.63,10.43,70.3,778.00,1005.0
2020-03-01,14:25:00,DRY,7.60,10.40,70.5,778.00,998.0
2020-03-01,14:30:00,DRY,7.03,10.33,70.7,778.00,989.3
2020-03-01,14:35:00,DRY,8.05,10.40,69.0,778.00,984.7
2020-03-01,14:40:00,DRY,8.20,10.23,70.0,778.00,973.4
2020-03-01,14:45:00,DRY,7.00,10.55,68.5,778.00,964.5
2020-03-01,14:50:00,DRY,8.97,10.33,69.7,778.00,955.2
2020-03-01,14:55:00,DRY,7.90,10.15,71.0,778.00,944.6
2020-03-01,15:00:00,DRY,8.50,10.13,69.7,778.00,935.1
2020-03-01,15:05:00,DRY,8.30,10.35,67.0,778.00,924.6
2020-03-01,15:10:00,DRY,7.80,10.30,65.7,778.00,913.9
2020-03-01,15:15:00,DRY,7.05,10.20,66.5,778.00,902.5
2020-03-01,15:20:00,DRY,8.40,10.07,69.7,778.00,887.9
2020-03-01,15:25:00,DRY,9.55,10.10,68.5,778.00,875.4
2020-03-01,15:30:00,DRY,8.07,9.83,70.7,778.00,862.9
2020-03-01,15:35:00,DRY,7.55,10.10,70.0,778.00,850.0
2020-03-01,15:40:00,DRY,8.77,9.77,71.0,778.00,834.4
2020-03-01,15:45:00,DRY,8.60,9.70,70.5,778.00,819.5
2020-03-01,15:50:00,DRY,8.60,9.67,70.3,778.00,804.3
2020-03-01,15:55:00,DRY,7.10,10.05,67.0,778.00,790.0
2020-03-01,16:00:00,DRY,7.57,9.83,69.3,778.00,772.0
2020-03-01,16:05:00,DRY,6.10,9.60,70.5,778.00,755.1
2020-03-01,16:10:00,DRY,7.17,9.60,70.0,778.00,738.6
2020-03-01,16:15:00,DRY,7.85,9.55,70.5,778.00,722.5
2020-03-01,16:20:00,DRY,7.10,9.60,71.3,778.00,703.9
2020-03-01,16:25:00,DRY,7.50,9.55,70.5,778.00,687.4
2020-03-01,16:30:00,DRY,6.67,9.37,71.3,778.00,667.2
2020-03-01,16:35:00,DRY,7.05,9.35,72.0,778.00,646.4
2020-03-01,16:40:00,DRY,6.93,9.30,72.0,778.00,628.1
2020-03-01,16:45:00,DRY,7.80,9.25,72.5,778.00,608.3
2020-03-01,16:50:00,DRY,8.20,9.07,72.7,778.00,587.8
2020-03-01,16:55:00,DRY,8.00,9.20,73.0,778.00,567.4
2020-03-01,17:00:00,DRY,8.17,9.23,73.0,778.00,547.6
2020-03-01,17:05:00,DRY,7.65,8.95,73.5,778.00,526.3
2020-03-01,17:10:00,DRY,9.13,8.83,74.0,778.00,504.8
2020-03-01,17:15:00,DRY,7.80,8.75,73.0,778.00,483.4
2020-03-01,17:20:00,DRY,8.87,8.73,72.7,778.00,461.5
2020-03-01,17:25:00,DRY,7.50,8.80,73.0,778.00,440.8
2020-03-01,17:30:00,DRY,9.63,8.73,73.3,778.00,418.9
2020-03-01,17:35:00,DRY,8.75,8.45,74.0,778.00,396.9
2020-03-01,17:40:00,DRY,7.17,8.43,74.7,778.00,374.6
2020-03-01,17:45:00,DRY,8.40,8.50,76.0,778.00,353.0
2020-03-01,17:50:00,DRY,8.83,8.47,74.7,778.00,330.3
2020-03-01,17:55:00,DRY,6.90,8.40,75.0,778.00,308.0
2020-03-01,18:00:00,DRY,7.80,8.50,72.7,778.00,287.3
2020-03-01,18:05:00,DRY,8.95,8.50,73.5,778.00,265.2
2020-03-01,18:10:00,DRY,8.37,8.43,71.3,778.00,243.4
2020-03-01,18:15:00,DRY,6.85,8.40,72.0,778.00,221.6
2020-03-01,18:20:00,DRY,8.40,8.33,69.0,778.00,201.9
2020-03-01,18:25:00,DRY,9.10,8.40,65.5,778.00,181.9
2020-03-01,18:30:00,DRY,9.10,8.30,68.3,778.00,161.4
2020-03-01,18:35:00,DRY,8.55,8.20,69.0,778.00,136.6
2020-03-01,18:40:00,DRY,8.77,8.07,71.0,778.00,108.2
2020-03-01,18:45:00,DRY,8.90,8.05,70.0,778.00,34.5
2020-03-01,18:50:00,DRY,8.03,7.90,73.0,778.00,22.7
2020-03-01,18:55:00,DRY,10.15,7.70,75.0,778.00,19.6
2020-03-01,19:00:00,DRY,9.40,7.67,75.0,778.00,16.3
2020-03-01,19:05:00,DRY,8.95,7.55,75.0,778.00,13.2
2020-03-01,19:10:00,DRY,8.60,7.47,74.7,778.00,10.2
2020-03-01,19:15:00,DRY,8.00,7.40,74.5,778.00,6.5
2020-03-01,19:20:00,DRY,8.00,7.30,73.0,778.00,3.9
2020-03-01,19:25:00,DRY,8.40,7.25,72.5,778.00,2.0
2020-03-01,19:30:00,DRY,9.10,7.13,72.0,778.00,1.8
2020-03-01,19:35:00,DRY,9.65,7.25,73.5,778.00,1.4
2020-03-01,19:40:00,DRY,9.43,7.23,72.7,778.00,1.4
2020-03-01,19:45:00,DRY,9.70,7.00,71.0,778.00,1.4
2020-03-01,19:50:00,DRY,9.27,6.93,74.3,778.00,1.4
2020-03-01,19:55:00,DRY,8.40,7.00,77.0,778.00,1.3
2020-03-01,20:00:00,DRY,8.83,6.87,74.0,778.00,1.3
2020-03-01,20:05:00,DRY,8.85,6.80,74.0,778.00,1.9
2020-03-01,20:10:00,DRY,8.13,6.87,77.7,778.00,1.5
2020-03-01,20:15:00,DRY,8.85,6.85,79.5,778.00,1.5
2020-03-01,20:20:00,DRY,9.60,6.77,79.7,778.00,1.5
2020-03-01,20:25:00,DRY,9.80,6.85,79.5,778.00,1.4
2020-03-01,20:30:00,DRY,8.90,6.77,79.3,778.00,1.3
2020-03-01,20:35:00,DRY,9.25,6.75,81.5,778.00,1.4
2020-03-01,20:40:00,DRY,8.87,6.77,82.3,778.00,1.4
2020-03-01,20:45:00,DRY,8.40,6.85,83.5,778.00,1.5
2020-03-01,20:50:00,DRY,9.73,6.80,82.0,778.00,1.4
2020-03-01,20:55:00,DRY,10.30,6.80,76.5,778.50,1.4
2020-03-01,21:00:00,DRY,10.17,6.70,74.0,778.33,1.2
2020-03-01,21:05:00,DRY,9.80,6.65,71.5,779.00,1.2
2020-03-01,21:10:00,DRY,10.27,6.67,70.3,779.00,1.3
2020-03-01,21:15:00,DRY,10.00,6.65,69.0,779.00,1.4
2020-03-01,21:20:00,DRY,11.07,6.70,68.7,779.00,1.3
2020-03-01,21:25:00,DRY,9.65,6.60,68.5,779.00,1.3
2020-03-01,21:30:00,DRY,10.37,6.67,67.3,779.00,1.1
2020-03-01,21:35:00,DRY,11.05,6.75,66.0,779.00,1.1
2020-03-01,21:40:00,DRY,10.70,6.70,68.0,779.00,1.5
2020-03-01,21:45:00,DRY,10.55,6.60,68.5,779.00,1.8
2020-03-01,21:50:00,DRY,9.20,6.57,69.3,779.00,1.3
2020-03-01,21:55:00,DRY,11.45,6.60,69.0,779.00,1.2
2020-03-01,22:00:00,DRY,6.93,6.50,66.3,779.00,1.2
2020-03-01,22:05:00,DRY,7.90,6.60,68.0,779.00,1.6
2020-03-01,22:10:00,DRY,9.13,6.53,67.0,779.00,1.1
2020-03-01,22:15:00,DRY,8.85,6.55,68.5,779.00,1.6
2020-03-01,22:20:00,DRY,9.30,6.43,68.3,779.00,1.7
2020-03-01,22:25:00,DRY,10.15,6.40,65.0,779.00,1.2
2020-03-01,22:30:00,DRY,8.47,6.47,66.0,779.00,1.4
2020-03-01,22:35:00,DRY,9.70,6.40,69.0,779.00,1.2
2020-03-01,22:40:00,DRY,10.17,6.50,67.7,779.00,0.7
2020-03-01,22:45:00,DRY,8.50,6.35,67.0,779.00,2.2
2020-03-01,22:50:00,DRY,10.17,6.37,65.3,779.00,0.9
2020-03-01,22:55:00,DRY,7.80,6.40,64.5,779.00,1.2
2020-03-01,23:00:00,DRY,8.53,6.40,63.7,779.00,1.3
2020-03-01,23:05:00,DRY,9.10,6.40,59.5,779.00,1.4
2020-03-01,23:10:00,DRY,8.63,6.50,58.3,779.00,1.6
2020-03-01,23:15:00,DRY,8.60,6.35,57.0,779.00,1.4
2020-03-01,23:20:00,DRY,8.27,6.57,50.3,779.00,1.0
2020-03-01,23:25:00,DRY,7.80,6.40,51.5,779.00,1.0
2020-03-01,23:30:00,DRY,8.53,6.67,42.3,779.00,1.3
2020-03-01,23:35:00,DRY,8.45,6.30,48.5,779.00,1.4
2020-03-01,23:40:00,DRY,8.13,6.50,43.3,779.00,0.5
2020-03-01,23:45:00,DRY,7.00,6.55,41.5,779.00,2.2
2020-03-01,23:50:00,DRY,8.47,6.67,37.7,779.00,1.6
2020-03-01,23:55:00,DRY,7.70,6.80,34.0,779.00,1.5
2020-03-02,00:00:00,DRY,8.37,6.90,32.3,779.00,1.3
2020-03-02,00:05:00,DRY,6.85,6.90,31.5,779.00,1.4
2020-03-02,00:10:00,DRY,7.70,7.00,31.3,779.00,1.3
2020-03-02,00:15:00,DRY,7.15,6.75,31.5,779.00,1.6
2020-03-02,00:20:00,DRY,7.83,7.50,25.0,779.00,1.2
2020-03-02,00:25:00,DRY,7.40,7.55,21.0,779.00,1.0
2020-03-02,00:30:00,DRY,8.30,8.30,17.0,779.00,1.2
2020-03-02,00:35:00,DRY,9.15,8.35,15.5,779.00,1.2
2020-03-02,00:40:00,DRY,9.17,8.37,15.3,779.00,1.1
2020-03-02,00:45:00,DRY,7.40,8.25,15.5,779.00,1.5
2020-03-02,00:50:00,DRY,7.70,8.20,15.7,779.00,1.1
2020-03-02,00:55:00,DRY,7.30,8.35,14.5,779.00,1.4
2020-03-02,01:00:00,DRY,7.73,8.50,14.0,779.00,1.3
2020-03-02,01:05:00,DRY,6.80,8.55,14.0,779.00,1.1
2020-03-02,01:10:00,DRY,8.00,8.67,13.3,779.00,1.1
2020-03-02,01:15:00,DRY,8.30,8.80,13.5,779.00,1.1
2020-03-02,01:20:00,DRY,8.50,9.00,13.0,779.00,1.2
2020-03-02,01:25:00,DRY,8.90,9.15,13.0,779.00,1.8
2020-03-02,01:30:00,DRY,8.57,9.17,13.0,779.00,1.4
2020-03-02,01:35:00,DRY,9.00,9.05,13.0,779.00,1.1
2020-03-02,01:40:00,DRY,8.40,9.03,13.0,779.00,1.4
2020-03-02,01:45:00,DRY,8.90,9.10,13.5,779.00,1.1
2020-03-02,01:50:00,DRY,7.67,9.03,14.0,779.00,1.4
2020-03-02,01:55:00,DRY,7.20,8.80,15.0,779.00,1.5
2020-03-02,02:00:00,DRY,6.23,8.60,16.0,779.00,1.1
2020-03-02,02:05:00,DRY,6.45,8.35,16.0,779.00,1.2
2020-03-02,02:10:00,DRY,6.20,7.93,17.0,778.00,1.3
2020-03-02,02:15:00,DRY,5.85,7.75,17.0,778.00,1.2
2020-03-02,02:20:00,DRY,6.10,7.87,17.7,778.00,0.8
2020-03-02,02:25:00,DRY,7.10,8.25,16.5,778.00,2.1
2020-03-02,02:30:00,DRY,7.57,8.37,16.3,778.00,1.0
2020-03-02,02:35:00,DRY,6.55,8.45,16.5,778.00,1.1
2020-03-02,02:40:00,DRY,6.47,8.33,16.7,778.00,1.3
2020-03-02,02:45:00,DRY,4.90,8.15,17.0,778.00,1.2
2020-03-02,02:50:00,DRY,6.73,8.23,17.0,778.00,0.9
2020-03-02,02:55:00,DRY,7.75,8.25,17.0,778.00,1.2
2020-03-02,03:00:00,DRY,6.23,8.17,17.0,778.00,1.3
2020-03-02,03:05:00,DRY,5.40,8.10,17.0,778.00,1.1
2020-03-02,03:10:00,DRY,5.53,8.03,17.7,778.00,1.2
2020-03-02,03:15:00,DRY,6.35,7.95,17.0,778.00,1.1
2020-03-02,03:20:00,DRY,5.77,7.73,17.0,778.00,1.1
2020-03-02,03:25:00,DRY,6.80,7.85,17.0,778.00,1.4
2020-03-02,03:30:00,DRY,5.50,7.90,17.0,778.00,1.4
2020-03-02,03:35:00,DRY,7.85,7.95,17.0,778.00,1.5
2020-03-02,03:40:00,DRY,7.03,7.83,17.3,778.00,1.2
2020-03-02,03:45:00,DRY,6.40,8.00,17.5,778.00,1.0
2020-03-02,03:50:00,DRY,6.27,7.83,17.3,778.00,0.7
2020-03-02,03:55:00,DRY,6.75,7.50,17.5,778.00,1.0
2020-03-02,04:00:00,DRY,7.87,7.73,17.3,778.00,1.0
2020-03-02,04:05:00,DRY,7.80,8.00,18.0,778.00,1.5
2020-03-02,04:10:00,DRY,5.57,8.13,18.0,778.00,1.0
2020-03-02,04:15:00,DRY,7.05,8.30,17.0,778.00,1.5
2020-03-02,04:20:00,DRY,6.83,8.57,16.0,778.00,1.3
2020-03-02,04:25:00,DRY,6.70,8.65,15.5,778.00,0.9
2020-03-02,04:30:00,DRY,7.87,8.67,13.7,778.00,1.2
2020-03-02,04:35:00,DRY,6.70,8.80,13.0,778.00,1.2
2020-03-02,04:40:00,DRY,6.80,8.87,12.7,778.00,1.0
2020-03-02,04:45:00,DRY,5.50,8.90,12.0,778.00,1.2
2020-03-02,04:50:00,DRY,6.00,8.97,11.7,778.00,1.2
2020-03-02,04:55:00,DRY,5.50,8.95,13.5,778.00,1.1
2020-03-02,05:00:00,DRY,7.07,8.57,15.0,778.00,1.4
2020-03-02,05:05:00,DRY,8.15,8.45,15.0,778.00,1.6
2020-03-02,05:10:00,DRY,7.00,8.13,16.0,778.00,1.1
2020-03-02,05:15:00,DRY,6.70,7.50,17.5,778.00,1.2
2020-03-02,05:20:00,DRY,6.23,7.10,19.3,778.00,1.2
2020-03-02,05:25:00,DRY,6.55,6.90,20.0,778.00,1.1
2020-03-02,05:30:00,DRY,8.70,8.13,13.3,778.00,0.6
2020-03-02,05:35:00,DRY,6.80,8.90,11.0,778.00,1.0
2020-03-02,05:40:00,DRY,6.93,8.23,13.3,778.00,1.2
2020-03-02,05:45:00,DRY,7.55,8.25,13.5,778.00,1.2
2020-03-02,05:50:00,DRY,7.67,8.43,12.3,778.00,1.2
2020-03-02,05:55:00,DRY,7.25,8.55,12.5,778.00,1.1
2020-03-02,06:00:00,DRY,8.00,8.37,13.0,778.00,0.8
2020-03-02,06:05:00,DRY,7.45,8.65,12.5,778.00,0.8
2020-03-02,06:10:00,DRY,7.03,9.03,10.7,778.00,1.1
2020-03-02,06:15:00,DRY,5.45,9.20,10.0,778.00,1.2
2020-03-02,06:20:00,DRY,6.67,9.60,7.3,778.00,1.1
2020-03-02,06:25:00,DRY,9.60,10.30,6.0,778.00,1.1
2020-03-02,06:30:00,DRY,7.13,10.17,6.3,778.00,1.3
2020-03-02,06:35:00,DRY,7.15,10.00,6.0,778.00,1.1
2020-03-02,06:40:00,DRY,6.80,9.50,8.3,778.00,1.2
2020-03-02,06:45:00,DRY,6.55,9.90,7.0,778.00,0.9
2020-03-02,06:50:00,DRY,6.53,9.87,6.7,778.00,0.9
2020-03-02,06:55:00,DRY,6.70,10.15,7.5,778.00,1.1
2020-03-02,07:00:00,DRY,6.17,9.83,7.7,778.00,1.2
2020-03-02,07:05:00,DRY,6.90,10.05,6.0,778.00,1.4
2020-03-02,07:10:00,DRY,6.03,10.37,6.0,778.00,1.8
2020-03-02,07:15:00,DRY,5.75,10.65,5.5,778.00,1.6
2020-03-02,07:20:00,DRY,6.13,10.53,6.0,778.00,1.8
2020-03-02,07:25:00,DRY,4.65,9.65,9.5,778.00,3.0
2020-03-02,07:30:00,DRY,5.23,9.47,9.0,778.00,5.0
2020-03-02,07:35:00,DRY,6.00,10.35,7.0,778.00,7.7
2020-03-02,07:40:00,DRY,6.70,10.40,6.3,778.67,10.2
2020-03-02,07:45:00,DRY,6.70,10.75,6.0,779.00,13.2
2020-03-02,07:50:00,DRY,5.57,10.40,6.7,779.00,15.5
2020-03-02,07:55:00,DRY,7.00,10.35,6.0,779.00,18.0
2020-03-02,08:00:00,DRY,6.53,10.67,6.0,779.00,19.7
2020-03-02,08:05:00,DRY,5.30,10.80,5.5,779.00,21.4
2020-03-02,08:10:00,DRY,5.53,10.97,5.0,779.00,23.1
2020-03-02,08:15:00,DRY,4.80,11.15,5.0,779.00,24.2
2020-03-02,08:20:00,DRY,6.43,11.33,5.0,779.00,25.9
2020-03-02,08:25:00,DRY,4.70,11.40,5.0,779.00,28.1
2020-03-02,08:30:00,DRY,5.83,11.50,5.0,779.00,29.2
2020-03-02,08:35:00,DRY,5.85,11.50,5.0,779.00,99.2
2020-03-02,08:40:00,DRY,5.70,11.43,5.3,779.00,297.3
2020-03-02,08:45:00,DRY,5.70,11.55,5.5,779.00,323.1
2020-03-02,08:50:00,DRY,4.40,11.77,5.3,779.00,346.5
2020-03-02,08:55:00,DRY,3.75,12.00,5.0,779.00,369.4
2020-03-02,09:00:00,DRY,5.47,12.23,4.0,779.00,391.8
2020-03-02,09:05:00,DRY,5.65,12.35,4.5,779.00,414.7
2020-03-02,09:10:00,DRY,5.60,12.73,4.3,779.00,436.8
2020-03-02,09:15:00,DRY,5.70,12.75,5.0,779.00,459.1
2020-03-02,09:20:00,DRY,4.47,12.70,4.3,779.00,480.6
2020-03-02,09:25:00,DRY,5.15,12.45,5.0,779.00,502.9
2020-03-02,09:30:00,DRY,5.17,12.57,5.0,779.00,524.3
2020-03-02,09:35:00,DRY,3.30,12.80,5.0,779.00,544.9
2020-03-02,09:40:00,DRY,3.57,13.17,4.7,779.00,567.5
2020-03-02,09:45:00,DRY,3.20,13.15,5.0,779.00,586.4
2020-03-02,09:50:00,DRY,4.33,13.70,5.3,779.00,607.5
2020-03-02,09:55:00,DRY,4.90,13.55,4.5,779.00,626.9
2020-03-02,10:00:00,DRY,3.50,13.63,5.7,779.00,648.2
2020-03-02,10:05:00,DRY,4.60,13.40,5.0,779.00,666.8
2020-03-02,10:10:00,DRY,4.17,13.30,4.7,779.00,685.9
2020-03-02,10:15:00,DRY,3.30,12.60,7.5,779.00,704.8
2020-03-02,10:20:00,DRY,4.23,11.57,10.3,779.00,722.4
2020-03-02,10:25:00,DRY,4.40,11.35,10.5,779.00,741.4
2020-03-02,10:30:00,DRY,3.10,11.47,8.7,779.33,758.3
2020-03-02,10:35:00,DRY,4.55,11.80,8.0,779.50,775.1
2020-03-02,10:40:00,DRY,4.97,11.93,6.7,780.00,792.3
2020-03-02,10:45:00,DRY,4.15,12.40,6.0,780.00,808.9
2020-03-02,10:50:00,DRY,4.50,12.63,6.0,780.00,825.9
2020-03-02,10:55:00,DRY,4.85,13.15,5.5,780.00,841.8
2020-03-02,11:00:00,DRY,3.93,13.30,5.0,780.00,856.0
2020-03-02,11:05:00,DRY,4.90,13.55,4.5,780.00,870.5
2020-03-02,11:10:00,DRY,4.80,13.73,5.0,780.00,884.0
2020-03-02,11:15:00,DRY,4.25,13.90,4.5,780.00,897.9
2020-03-02,11:20:00,DRY,3.13,13.97,4.7,780.00,910.8
2020-03-02,11:25:00,DRY,3.95,14.15,5.0,780.00,923.5
2020-03-02,11:30:00,DRY,3.87,14.13,5.0,780.00,935.9
2020-03-02,11:35:00,DRY,4.65,14.10,4.5,780.00,946.7
2020-03-02,11:40:00,DRY,3.87,13.97,6.7,780.00,958.1
2020-03-02,11:45:00,DRY,3.50,14.05,6.0,780.00,968.8
2020-03-02,11:50:00,DRY,5.17,14.03,5.7,780.00,977.8
2020-03-02,11:55:00,DRY,4.45,14.20,6.5,780.00,988.5
2020-03-02,12:00:00,DRY,4.07,14.27,6.0,780.00,996.3
2020-03-02,12:05:00,DRY,5.85,14.05,6.0,780.00,1005.0
2020-03-02,12:10:00,DRY,4.03,14.20,6.3,780.00,1011.9
2020-03-02,12:15:00,DRY,4.85,14.45,6.0,780.00,1020.5
2020-03-02,12:20:00,DRY,4.97,14.53,5.7,780.00,1027.1
2020-03-02,12:25:00,DRY,4.40,14.65,6.5,780.00,1034.7
2020-03-02,12:30:00,DRY,4.33,14.77,7.3,780.00,1040.7
2020-03-02,12:35:00,DRY,3.90,14.60,9.0,780.00,1046.3
2020-03-02,12:40:00,DRY,4.20,14.97,7.0,779.67,1050.7
2020-03-02,12:45:00,DRY,4.30,14.70,7.0,779.50,1055.1
2020-03-02,12:50:00,DRY,3.67,14.73,7.3,779.00,1057.8
2020-03-02,12:55:00,DRY,3.90,14.75,6.0,779.00,1060.7
2020-03-02,13:00:00,DRY,3.90,14.80,7.3,779.33,1063.0
2020-03-02,13:05:00,DRY,3.10,14.80,8.5,779.00,1065.7
2020-03-02,13:10:00,DRY,3.40,14.93,7.3,779.33,1067.1
2020-03-02,13:15:00,DRY,2.55,15.05,8.0,779.00,1067.8
2020-03-02,13:20:00,DRY,4.60,15.20,8.0,779.00,1068.4
2020-03-02,13:25:00,DRY,4.25,15.40,7.5,779.00,1067.7
2020-03-02,13:30:00,DRY,5.10,15.60,8.0,779.00,1067.4
2020-03-02,13:35:00,DRY,4.10,15.60,10.0,779.00,1064.4
2020-03-02,13:40:00,DRY,3.43,15.37,9.3,779.00,1065.3
2020-03-02,13:45:00,DRY,5.15,15.20,7.5,779.00,1061.0
2020-03-02,13:50:00,DRY,4.20,15.23,9.7,779.00,1058.1
2020-03-02,13:55:00,DRY,4.30,15.15,9.0,779.00,1054.3
2020-03-02,14:00:00,DRY,4.47,15.27,7.3,779.00,1050.4
2020-03-02,14:05:00,DRY,5.30,15.10,8.5,779.00,1044.7
2020-03-02,14:10:00,DRY,4.03,15.37,7.7,779.00,1040.0
2020-03-02,14:15:00,DRY,6.00,15.50,6.0,779.00,1033.6
2020-03-02,14:20:00,DRY,4.67,15.63,6.7,779.00,1027.2
2020-03-02,14:25:00,DRY,3.60,15.60,6.5,779.00,1020.0
2020-03-02,14:30:00,DRY,4.67,15.67,6.7,779.00,1013.2
2020-03-02,14:35:00,DRY,5.15,15.55,6.5,779.00,1006.2
2020-03-02,14:40:00,DRY,4.87,15.77,6.7,779.00,997.4
2020-03-02,14:45:00,DRY,4.55,15.75,6.5,779.00,988.9
2020-03-02,14:50:00,DRY,5.40,15.70,6.7,779.00,979.7
2020-03-02,14:55:00,DRY,3.60,15.95,6.5,779.00,970.0
2020-03-02,15:00:00,DRY,4.33,16.03,6.3,779.00,960.0
2020-03-02,15:05:00,DRY,4.25,15.95,7.0,779.00,948.6
2020-03-02,15:10:00,DRY,3.63,15.90,7.7,779.00,937.1
2020-03-02,15:15:00,DRY,3.65,16.20,7.0,779.00,925.6
2020-03-02,15:20:00,DRY,4.00,15.97,7.3,779.00,913.9
2020-03-02,15:25:00,DRY,3.70,15.60,6.5,778.50,900.4
2020-03-02,15:30:00,DRY,3.20,15.87,7.3,778.33,887.1
2020-03-02,15:35:00,DRY,3.90,15.95,7.0,778.50,873.3
2020-03-02,15:40:00,DRY,3.97,15.77,7.0,778.33,857.7
2020-03-02,15:45:00,DRY,3.15,15.65,6.5,778.00,844.5
2020-03-02,15:50:00,DRY,4.23,15.80,7.0,778.00,827.5
2020-03-02,15:55:00,DRY,3.05,15.60,6.0,778.00,811.8
2020-03-02,16:00:00,DRY,2.70,15.27,6.3,778.33,796.0
2020-03-02,16:05:00,DRY,2.55,15.40,6.0,779.00,779.6
2020-03-02,16:10:00,DRY,3.40,15.23,5.7,779.00,763.0
2020-03-02,16:15:00,DRY,2.40,14.90,6.0,779.00,748.5
2020-03-02,16:20:00,DRY,2.87,14.70,6.3,778.00,727.3
2020-03-02,16:25:00,DRY,4.15,14.95,6.0,778.50,708.3
2020-03-02,16:30:00,DRY,3.10,15.13,6.7,778.67,689.1
2020-03-02,16:35:00,DRY,2.65,14.70,6.0,778.50,669.8
2020-03-02,16:40:00,DRY,3.13,14.77,6.3,778.33,650.3
2020-03-02,16:45:00,DRY,3.85,14.85,6.5,779.00,630.5
2020-03-02,16:50:00,DRY,3.20,14.83,6.3,779.00,611.0
2020-03-02,16:55:00,DRY,3.55,14.75,6.5,779.00,590.5
2020-03-02,17:00:00,DRY,3.75,14.65,6.0,779.00,574.5
2020-03-02,17:05:00,DRY,4.25,14.75,6.5,779.00,548.0
2020-03-02,17:10:00,DRY,2.90,14.77,5.7,779.00,526.1
2020-03-02,17:15:00,DRY,3.60,15.00,5.5,779.00,504.9
2020-03-02,17:20:00,DRY,3.43,14.93,6.0,779.00,483.1
2020-03-02,17:25:00,DRY,3.50,15.00,5.5,779.00,460.6
2020-03-02,17:30:00,DRY,3.57,15.00,6.0,779.00,438.2
2020-03-02,17:35:00,DRY,4.30,15.05,6.0,779.00,415.9
2020-03-02,17:40:00,DRY,3.23,14.73,6.0,779.00,393.3
2020-03-02,17:45:00,DRY,3.60,14.55,6.0,779.00,370.1
2020-03-02,17:50:00,DRY,4.20,14.30,5.7,779.00,347.5
2020-03-02,17:55:00,DRY,3.75,14.15,6.0,779.00,325.6
2020-03-02,18:00:00,DRY,3.30,14.13,5.7,779.00,302.9
2020-03-02,18:05:00,DRY,3.00,13.90,5.0,779.00,280.5
2020-03-02,18:10:00,DRY,2.97,13.93,5.3,779.00,258.8
2020-03-02,18:15:00,DRY,3.30,13.95,6.0,779.00,236.9
2020-03-02,18:20:00,DRY,2.80,14.20,6.0,779.00,216.2
2020-03-02,18:25:00,DRY,2.75,14.25,6.0,779.00,194.9
2020-03-02,18:30:00,DRY,2.87,14.17,6.0,779.00,174.0
2020-03-02,18:35:00,DRY,2.55,14.10,6.5,779.00,149.7
2020-03-02,18:40:00,DRY,2.07,14.03,5.0,779.00,116.1
2020-03-02,18:45:00,DRY,3.30,13.95,5.0,779.00,26.2
2020-03-02,18:50:00,DRY,2.70,13.90,5.3,779.00,21.2
2020-03-02,18:55:00,DRY,3.35,13.40,5.0,779.00,18.8
2020-03-02,19:00:00,DRY,3.37,13.33,5.0,779.00,16.2
2020-03-02,19:05:00,DRY,3.05,13.25,5.5,779.00,13.3
2020-03-02,19:10:00,DRY,3.77,13.53,6.0,779.00,10.8
2020-03-02,19:15:00,DRY,3.70,13.60,6.0,779.00,7.5
2020-03-02,19:20:00,DRY,3.63,13.83,6.0,779.00,4.4
2020-03-02,19:25:00,DRY,2.80,14.15,5.5,779.00,2.6
2020-03-02,19:30:00,DRY,2.20,13.97,6.0,779.00,1.8
2020-03-02,19:35:00,DRY,3.10,14.00,6.0,779.00,1.5
2020-03-02,19:40:00,DRY,3.00,14.30,6.0,779.00,1.7
2020-03-02,19:45:00,DRY,3.70,14.35,6.0,779.00,1.3
2020-03-02,19:50:00,DRY,3.40,14.13,6.7,779.00,1.3
2020-03-02,19:55:00,DRY,3.50,13.75,7.0,779.50,1.7
2020-03-02,20:00:00,DRY,3.93,13.73,6.3,780.00,2.0
2020-03-02,20:05:00,DRY,3.75,13.50,6.0,780.00,1.5
2020-03-02,20:10:00,DRY,4.57,13.30,6.0,780.00,1.1
2020-03-02,20:15:00,DRY,5.20,13.25,5.0,780.00,1.2
2020-03-02,20:20:00,DRY,5.90,13.13,5.0,780.00,1.2
2020-03-02,20:25:00,DRY,3.50,13.05,5.0,780.00,1.1
2020-03-02,20:30:00,DRY,3.80,13.07,5.0,780.00,1.2
2020-03-02,20:35:00,DRY,4.55,13.25,5.5,780.00,1.5
2020-03-02,20:40:00,DRY,4.50,13.07,5.0,780.00,1.4
2020-03-02,20:45:00,DRY,3.55,13.05,5.5,780.00,0.9
2020-03-02,20:50:00,DRY,3.63,13.07,5.3,780.00,0.5
2020-03-02,20:55:00,DRY,4.80,13.10,5.5,780.00,1.3
2020-03-02,21:00:00,DRY,4.27,13.13,5.7,780.00,1.4
2020-03-02,21:05:00,DRY,3.15,13.00,6.0,780.00,1.4
2020-03-02,21:10:00,DRY,3.13,13.03,5.3,780.00,0.9
2020-03-02,21:15:00,DRY,4.00,13.10,5.5,780.00,1.3
2020-03-02,21:20:00,DRY,3.10,13.10,6.0,780.00,1.9